TimeEDT,TemperatureF,Dew PointF,Humidity,Sea Level PressureIn,VisibilityMPH,Wind Direction,Wind SpeedMPH,Gust SpeedMPH,PrecipitationIn,Events,Conditions,WindDirDegrees,DateUTC
12:56 AM,64.0,57.9,80,30.25,10.0,Calm,Calm,-,N/A,,Clear,0,2013-08-18 04:56:00
1:56 AM,64.9,59.0,81,30.24,10.0,Calm,Calm,-,N/A,,Clear,0,2013-08-18 05:56:00
2:56 AM,64.9,59.0,81,30.24,10.0,Calm,Calm,-,N/A,,Clear,0,2013-08-18 06:56:00
3:56 AM,64.0,59.0,84,30.23,10.0,Calm,Calm,-,N/A,,Clear,0,2013-08-18 07:56:00
4:56 AM,62.1,57.9,86,30.24,10.0,Calm,Calm,-,N/A,,Clear,0,2013-08-18 08:56:00
5:56 AM,63.0,57.9,84,30.23,10.0,Calm,Calm,-,N/A,,Overcast,0,2013-08-18 09:56:00
6:56 AM,64.9,59.0,81,30.24,10.0,Calm,Calm,-,N/A,,Overcast,0,2013-08-18 10:56:00
7:56 AM,69.1,59.0,70,30.25,10.0,ENE,3.5,-,N/A,,Overcast,60,2013-08-18 11:56:00
8:56 AM,71.1,57.9,63,30.24,10.0,East,5.8,-,N/A,,Overcast,90,2013-08-18 12:56:00
9:56 AM,73.0,59.0,61,30.25,10.0,ESE,4.6,-,N/A,,Overcast,110,2013-08-18 13:56:00
10:56 AM,72.0,60.1,66,30.24,10.0,ENE,4.6,-,0.00,Rain,Light Rain,70,2013-08-18 14:56:00
11:56 AM,73.9,57.9,57,30.23,10.0,Variable,4.6,-,0.00,,Overcast,0,2013-08-18 15:56:00
12:56 PM,73.9,57.0,55,30.22,10.0,ESE,6.9,-,N/A,,Overcast,110,2013-08-18 16:56:00
1:56 PM,75.9,57.0,52,30.20,10.0,East,6.9,-,0.00,,Overcast,90,2013-08-18 17:56:00
2:56 PM,75.0,60.1,60,30.17,10.0,East,10.4,-,N/A,,Overcast,100,2013-08-18 18:56:00
3:56 PM,73.9,59.0,59,30.15,10.0,East,6.9,-,N/A,,Overcast,90,2013-08-18 19:56:00
4:56 PM,73.0,60.1,64,30.13,10.0,East,6.9,-,N/A,,Overcast,100,2013-08-18 20:56:00
5:56 PM,72.0,59.0,64,30.12,10.0,East,6.9,-,0.00,Rain,Light Rain,100,2013-08-18 21:56:00
6:56 PM,69.1,60.1,73,30.13,10.0,NE,9.2,-,0.01,Rain,Light Rain,50,2013-08-18 22:56:00
7:56 PM,66.9,57.9,73,30.12,10.0,NNE,5.8,-,0.00,Rain,Light Rain,20,2013-08-18 23:56:00
8:56 PM,66.9,57.0,70,30.14,10.0,Calm,Calm,-,0.00,,Overcast,0,2013-08-19 00:56:00
9:56 PM,64.9,55.9,73,30.13,10.0,ENE,3.5,-,N/A,,Mostly Cloudy,60,2013-08-19 01:56:00
10:56 PM,64.9,55.0,70,30.13,10.0,Calm,Calm,-,N/A,,Overcast,0,2013-08-19 02:56:00
11:56 PM,62.1,55.0,78,30.13,10.0,Calm,Calm,-,N/A,,Overcast,0,2013-08-19 03:56:00